Starlink 5877

operational
NORAD ID: 56354 Int'l Des: 2023-058 Owner: SPXS Country: US Constellation: starlink
LEOCIRCULARRETROGRADESSO

About Starlink 5877

Description loading...

Live Position

Loading 3D Globe...

Upcoming Passes

Altitude History

Altitude vs Time

uPlot chart will show altitude changes over time

Two-Line Element Set

1 56354U 23058AP 26062.45005490 .00001302 00000-0 94412-4 0 9994
2 56354 97.6040 65.0046 0002270 77.1261 283.0219 15.05656381157252
Epoch: Mar 3, 2026 • Age: 39 hours

Current Status

Altitude 577.3 km
Velocity 7.57 km/s
Sub-Earth Point -71.41°S, 59.2°E
Launch Date Apr 27, 2023
Age 2.8 years
Type internet

Technical Details

Classification Payload
Mass 300.00 kg
Dry Mass 260.00 kg
Total Mass 300.00 kg
Length 0.20 m
Diameter 2.80 m
Span 9.00 m
Shape Box + pan
Manufacturer SPXS
Bus Type Starlink
Phase Status In Orbit
Owner/State SPXS/US

Large Constellations

Loading constellations...